CW2798 Aduanas ES current weather conditions

sailwx.info

Wind from 198

Air temperature 23.9° C
Dewpoint 19.4° C

Last reported at 2020-Sep-19 08:00 UTC.
Time now 2020-Sep-19 08:51 UTC

Location: N 38°48' E 000°11'.
View on Google Maps.

See reports from other nearby stations

  
Tides and Currents Weather Stations Pressure Air Temp Water Temp Dewpoint Dewpoint Depression Visibility Wind Speed Wind Dir Waves Ship Positions
date/time (UTC)wind fromknots sea level pressurealtimeterstation pressurevisibilityair tempwater tempwave heightnotes
2020-Sep-19 08:00 198 23.9
2020-Sep-19 07:45 223 22.8
2020-Sep-19 07:30 213 22.2
2020-Sep-19 07:15 215 21.7
2020-Sep-19 07:01 240 21.1
2020-Sep-19 06:45 233 21.1
2020-Sep-19 06:30 225 20.6
2020-Sep-19 06:15 254 20.0
2020-Sep-19 06:00 244 20.0
2020-Sep-19 05:45 241 20.0
2020-Sep-19 05:31 250 20.6
2020-Sep-19 05:15 317 22.2
2020-Sep-19 05:00 254 21.1
2020-Sep-19 04:45 302 21.1
2020-Sep-19 04:30 231 21.1
2020-Sep-19 04:15 252 21.1
2020-Sep-19 04:00 250 21.1
2020-Sep-19 03:45 259 21.1
2020-Sep-19 03:30 281 21.1
2020-Sep-19 03:15 291 21.7
2020-Sep-19 03:00 320 21.7
2020-Sep-19 02:45 224 21.7
2020-Sep-19 02:30 265 22.2
2020-Sep-19 02:15 257 21.7
2020-Sep-19 02:00 257 21.7
2020-Sep-19 01:45 263 21.7
2020-Sep-19 01:30 261 21.7
2020-Sep-19 01:15 250 21.1
2020-Sep-19 01:00 210 21.1
2020-Sep-19 00:45 245 21.1
2020-Sep-19 00:30 257 21.1
2020-Sep-19 00:15 257 21.1
2020-Sep-19 00:00 257 20.6
2020-Sep-18 23:45 211 21.7
2020-Sep-18 23:30 290 21.7
2020-Sep-18 23:15 266 21.7
2020-Sep-18 23:00 266 21.7
2020-Sep-18 22:45 266 21.7
2020-Sep-18 22:30 266 22.2
2020-Sep-18 22:15 266 22.2
2020-Sep-18 22:00 273 22.8
2020-Sep-18 21:45 290 22.8
2020-Sep-18 21:30 281 0 gusting 5 22.8
2020-Sep-18 21:15 342 23.3
2020-Sep-18 21:00 355 23.3
2020-Sep-18 20:45 277 23.9
2020-Sep-18 20:30 205 24.4
2020-Sep-18 20:15 258 24.4
2020-Sep-18 20:00 307 2 gusting 8 23.9
2020-Sep-18 19:45 277 23.3
2020-Sep-18 19:30 254 23.3
2020-Sep-18 19:15 250 23.3
2020-Sep-18 19:00 272 23.3
2020-Sep-18 18:45 247 4 gusting 9 23.3
2020-Sep-18 18:30 261 1 gusting 7 23.9
2020-Sep-18 18:15 192 0 gusting 6 23.9
2020-Sep-18 18:00 212 23.9
2020-Sep-18 17:30 216 25.0
2020-Sep-18 17:15 205 0 gusting 6 25.0
2020-Sep-18 17:00 215 25.0
2020-Sep-18 16:45 250 2 gusting 9 25.0
2020-Sep-18 16:30 248 1 gusting 10 25.0
2020-Sep-18 16:15 184 4 gusting 14 25.0
2020-Sep-18 16:01 196 1 gusting 12 25.0
2020-Sep-18 15:45 192 5 gusting 12 25.0
2020-Sep-18 15:30 225 0 gusting 13 25.0
2020-Sep-18 15:15 239 0 gusting 11 25.0
2020-Sep-18 15:00 251 1 gusting 9 24.4
2020-Sep-18 14:45 190 23.9
2020-Sep-18 14:30 142 6 gusting 11 23.9
2020-Sep-18 14:00 153 24.4
2020-Sep-18 13:45 190 4 gusting 7 24.4
2020-Sep-18 13:30 240 25.0
2020-Sep-18 13:15 217 0 gusting 6 25.0
2020-Sep-18 13:00 219 6 gusting 9 25.0
2020-Sep-18 12:45 198 25.0
2020-Sep-18 12:30 202 24.4
2020-Sep-18 12:15 178 24.4
2020-Sep-18 12:00 212 24.4
2020-Sep-18 11:45 203 24.4
2020-Sep-18 11:30 202 25.0
2020-Sep-18 11:15 161 24.4
2020-Sep-18 11:00 185 24.4
2020-Sep-18 10:45 214 24.4
2020-Sep-18 10:30 166 23.9
2020-Sep-18 10:15 244 23.9
2020-Sep-18 10:00 245 23.3
2020-Sep-18 09:45 246 22.8
2020-Sep-18 09:30 252 22.8
2020-Sep-18 09:15 237 22.2
2020-Sep-18 09:00 304 21.7
2020-Sep-18 08:45 303 21.7
2020-Sep-18 08:30 122 21.7
2020-Sep-18 08:15 124 22.2
2020-Sep-18 08:00 067 21.7
2020-Sep-18 07:45 280 21.7
2020-Sep-18 07:30 234 0 gusting 10 21.7
2020-Sep-18 07:15 299 3 gusting 15 22.2
2020-Sep-18 07:00 304 8 gusting 19 22.8
2020-Sep-18 06:45 333 7 gusting 16 23.3
2020-Sep-18 06:30 346 7 gusting 19 23.9
2020-Sep-18 06:15 292 6 gusting 14 23.9
2020-Sep-18 06:00 271 9 gusting 14 23.9
2020-Sep-18 05:46 318 2 gusting 10 24.4
2020-Sep-18 05:31 313 24.4
2020-Sep-18 05:15 355 0 gusting 6 23.9
2020-Sep-18 05:00 246 22.8
2020-Sep-18 04:45 273 23.9
2020-Sep-18 04:30 342 24.4
2020-Sep-18 04:15 005 23.9
2020-Sep-18 04:00 325 23.9
2020-Sep-18 03:45 254 23.3
2020-Sep-18 03:30 254 23.3
2020-Sep-18 03:15 254 22.8
2020-Sep-18 03:00 254 23.3
2020-Sep-18 02:45 254 23.3
2020-Sep-18 02:30 254 23.3
2020-Sep-18 02:15 254 23.3
2020-Sep-18 02:00 254 23.3
2020-Sep-18 01:45 254 23.3
2020-Sep-18 01:30 254 23.3
2020-Sep-18 01:15 254 23.3
2020-Sep-18 00:45 254 23.3
2020-Sep-18 00:30 254 23.9
2020-Sep-18 00:15 254 24.4
2020-Sep-18 00:00 255 24.4
2020-Sep-17 23:45 262 23.9
2020-Sep-17 23:30 258 23.9
2020-Sep-17 23:15 219 23.9
2020-Sep-17 23:00 219 24.4
2020-Sep-17 22:45 218 24.4
2020-Sep-17 22:32 218 24.4
2020-Sep-17 22:15 179 24.4
2020-Sep-17 22:00 179 25.0
2020-Sep-17 21:45 205 25.0
2020-Sep-17 21:30 213 24.4
2020-Sep-17 21:15 221 24.4
2020-Sep-17 21:00 207 24.4
2020-Sep-17 20:45 207 24.4
2020-Sep-17 20:30 234 24.4
2020-Sep-17 20:15 215 25.0
2020-Sep-17 20:00 252 25.0
2020-Sep-17 19:45 233 25.0
2020-Sep-17 19:30 206 25.6
2020-Sep-17 19:15 202 25.6
2020-Sep-17 19:00 216 25.6
2020-Sep-17 18:46 248 25.6
2020-Sep-17 18:30 183 25.6
2020-Sep-17 18:15 221 25.6
2020-Sep-17 18:00 206 25.6
2020-Sep-17 17:45 208 26.1
2020-Sep-17 17:30 187 26.1
2020-Sep-17 17:15 211 26.1
2020-Sep-17 17:00 202 26.1
2020-Sep-17 16:45 208 0 gusting 8 26.7
2020-Sep-17 16:30 151 0 gusting 8 26.7
2020-Sep-17 16:15 218 1 gusting 10 26.7
2020-Sep-17 16:00 175 0 gusting 12 27.2
2020-Sep-17 15:45 191 5 gusting 13 27.2
2020-Sep-17 15:30 173 27.2
2020-Sep-17 15:15 241 0 gusting 11 26.7
2020-Sep-17 15:00 184 2 gusting 9 27.2
2020-Sep-17 14:45 176 2 gusting 6 27.2
2020-Sep-17 14:30 163 1 gusting 7 26.7
2020-Sep-17 14:15 207 1 gusting 9 26.7
2020-Sep-17 14:00 160 0 gusting 8 26.7
2020-Sep-17 13:45 198 5 gusting 8 27.2
2020-Sep-17 13:30 186 0 gusting 7 26.7
2020-Sep-17 13:15 161 0 gusting 7 26.7
2020-Sep-17 13:00 159 0 gusting 6 26.1
2020-Sep-17 12:45 153 26.1
2020-Sep-17 12:30 193 26.1
2020-Sep-17 12:15 188 0 gusting 5 26.1
2020-Sep-17 12:00 217 26.1
2020-Sep-17 11:45 145 25.6
2020-Sep-17 11:30 134 25.6
2020-Sep-17 11:15 155 26.1
2020-Sep-17 11:00 133 26.1
2020-Sep-17 10:45 160 26.1
2020-Sep-17 10:30 200 25.6
2020-Sep-17 10:15 223 25.6
2020-Sep-17 10:00 221 25.6
2020-Sep-17 09:45 242 25.6
2020-Sep-17 09:30 257 25.0
2020-Sep-17 09:15 221 25.0
2020-Sep-17 09:00 222 24.4
2020-Sep-17 08:45 242 24.4
2020-Sep-17 08:30 271 24.4
2020-Sep-17 08:15 274 23.9
2020-Sep-17 08:00 244 23.3